{"data":{"norad_id":40701,"epoch":"2026-05-25T04:01:34.527072Z","epoch_age_seconds":57674,"freshness":"FRESH","line1":"1 40701U 15030A   26145.16776073  .00012141  00000+0  25914-3 0  9998","line2":"2 40701  97.6920 337.1714 0007517 276.6766  83.3626 15.45009340607892","mean_motion":15.4500934,"eccentricity":0.0007517,"inclination_deg":97.692,"raan_deg":337.1714,"arg_perigee_deg":276.6766,"mean_anomaly_deg":83.3626,"bstar":0.00025914,"rev_number":60789,"period_min":93.203320052421,"perigee_km":426.23193668909,"apogee_km":436.46932038984,"semimajor_km":6809.4876285395,"source":"CELESTRAK","updated_at":"2026-05-25T13:38:12.788796Z"}}